| time (UTC) | temp F | wind direction | speed knots | gust knots | rain 1hr in | rain 24hr in | rain mn in | humidity % | barometer mb |
| 20260508044022 | 52 | 0.0 | 0.0 | 0.00 | 0.02 | 0.00 | 97 | 1016.7 | |
| 20260508043042 | 52 | 0.0 | 0.0 | 0.00 | 0.02 | 0.00 | 97 | 1016.6 | |
| 20260508042021 | 52 | 0.0 | 0.0 | 0.00 | 0.02 | 0.00 | 97 | 1016.6 | |
| 20260508041041 | 52 | 0.0 | 0.0 | 0.00 | 0.02 | 0.00 | 97 | 1016.5 | |
| 20260508040044 | 52 | 0.0 | 0.0 | 0.00 | 0.02 | 0.02 | 97 | 1016.4 | |
| 20260508035021 | 53 | 0.0 | 0.0 | 0.00 | 0.02 | 0.02 | 97 | 1016.1 | |
| 20260508034020 | 53 | 0.0 | 0.0 | 0.00 | 0.02 | 0.02 | 97 | 1016.1 | |
| 20260508033543 | 53 | 0.0 | 0.0 | 0.00 | 0.02 | 0.02 | 96 | 1016.1 | |
| 20260508032520 | 53 | 0.0 | 0.0 | 0.00 | 0.02 | 0.02 | 96 | 1015.8 | |
| 20260508031520 | 54 | 0.0 | 0.0 | 0.00 | 0.02 | 0.02 | 96 | 1016.1 | |
| 20260508030522 | 54 | 0.0 | 0.9 | 0.00 | 0.02 | 0.02 | 96 | 1016.0 | |
| 20260508025522 | 54 | 0.0 | 0.0 | 0.00 | 0.02 | 0.02 | 96 | 1016.0 | |
| 20260508024520 | 55 | 0.0 | 0.9 | 0.00 | 0.02 | 0.02 | 96 | 1015.8 | |
| 20260508023520 | 55 | 0.0 | 0.9 | 0.00 | 0.02 | 0.02 | 96 | 1015.6 | |
| 20260508022522 | 55 | 0.0 | 0.0 | 0.00 | 0.02 | 0.02 | 96 | 1015.7 | |
| 20260508021522 | 55 | 0.0 | 0.9 | 0.00 | 0.02 | 0.02 | 96 | 1015.6 | |
| 20260508020522 | 55 | 0.0 | 0.0 | 0.00 | 0.02 | 0.02 | 96 | 1015.5 | |
| 20260508015601 | 55 | 0.0 | 0.0 | 0.00 | 0.02 | 0.02 | 96 | 1015.5 | |
| 20260508014522 | 55 | 0.0 | 0.0 | 0.00 | 0.02 | 0.02 | 96 | 1015.3 | |
| 20260508013522 | 55 | 0.0 | 0.0 | 0.00 | 0.02 | 0.02 | 96 | 1014.9 | |
| 20260508012522 | 55 | 0.0 | 0.0 | 0.00 | 0.02 | 0.02 | 96 | 1014.5 | |
| 20260508011520 | 55 | 0.0 | 0.0 | 0.00 | 0.02 | 0.02 | 95 | 1014.9 | |
| 20260508010542 | 55 | 0.0 | 0.0 | 0.00 | 0.02 | 0.02 | 95 | 1014.7 | |
| 20260508005542 | 55 | 0.0 | 0.0 | 0.00 | 0.02 | 0.02 | 95 | 1014.6 | |
| 20260508004703 | 56 | 0.0 | 0.0 | 0.00 | 0.02 | 0.02 | 95 | 1014.5 | |
| 20260508003520 | 56 | 0.0 | 0.0 | 0.00 | 0.02 | 0.02 | 95 | 1014.6 | |
| 20260508002542 | 56 | 0.0 | 0.0 | 0.00 | 0.02 | 0.02 | 95 | 1014.4 | |
| 20260508001523 | 56 | 0.0 | 0.9 | 0.02 | 0.02 | 0.02 | 95 | 1014.3 | |
| 20260508000522 | 56 | 0.0 | 0.0 | 0.02 | 0.02 | 0.02 | 95 | 1013.9 | |
| 20260507235522 | 56 | 0.0 | 0.0 | 0.02 | 0.02 | 0.02 | 95 | 1014.0 | |
| 20260507234522 | 56 | 0.0 | 0.9 | 0.02 | 0.02 | 0.02 | 94 | 1014.1 | |
| 20260507233524 | 56 | 0.0 | 0.9 | 0.02 | 0.02 | 0.02 | 95 | 1013.7 | |
| 20260507232542 | 56 | 0.0 | 0.0 | 0.02 | 0.02 | 0.02 | 95 | 1013.7 | |
| 20260507231522 | 56 | 0.0 | 0.9 | 0.00 | 0.00 | 0.00 | 94 | 1013.5 | |
| 20260507230522 | 56 | 0.0 | 0.9 | 0.00 | 0.00 | 0.00 | 94 | 1013.2 | |
| 20260507225522 | 56 | 0.0 | 0.9 | 0.00 | 0.00 | 0.00 | 93 | 1013.1 | |
| 20260507224522 | 56 | 0.0 | 0.9 | 0.00 | 0.00 | 0.00 | 93 | 1013.0 | |
| 20260507223542 | 56 | 0.0 | 0.9 | 0.00 | 0.00 | 0.00 | 93 | 1013.0 | |
| 20260507222522 | 56 | 0.0 | 1.7 | 0.00 | 0.00 | 0.00 | 93 | 1012.9 | |
| 20260507221521 | 56 | 0.0 | 0.9 | 0.00 | 0.00 | 0.00 | 93 | 1013.2 | |
| 20260507220522 | 57 | 0.0 | 2.6 | 0.00 | 0.00 | 0.00 | 93 | 1013.3 | |
| 20260507215522 | 57 | 0.0 | 1.7 | 0.00 | 0.00 | 0.00 | 94 | 1013.6 | |
| 20260507214542 | 57 | 0.0 | 2.6 | 0.00 | 0.00 | 0.00 | 94 | 1013.1 | |
| 20260507213521 | 57 | 0.0 | 0.9 | 0.00 | 0.00 | 0.00 | 94 | 1013.0 | |
| 20260507212522 | 57 | 0.0 | 1.7 | 0.00 | 0.00 | 0.00 | 95 | 1013.1 | |
| 20260507211522 | 57 | 0.0 | 1.7 | 0.00 | 0.00 | 0.00 | 94 | 1013.0 | |
| 20260507210522 | 57 | 0.0 | 0.9 | 0.00 | 0.00 | 0.00 | 94 | 1013.0 | |
| 20260507205542 | 57 | 0.0 | 1.7 | 0.00 | 0.00 | 0.00 | 94 | 1012.9 | |
| 20260507204522 | 57 | 0.0 | 0.9 | 0.00 | 0.00 | 0.00 | 95 | 1012.7 | |
| 20260507203522 | 57 | 0.0 | 2.6 | 0.00 | 0.00 | 0.00 | 96 | 1012.3 | |
| 20260507202542 | 57 | 45 | 0.9 | 3.5 | 0.00 | 0.00 | 0.00 | 95 | 1012.7 |
| 20260507202023 | 57 | 0.0 | 1.7 | 0.00 | 0.00 | 0.00 | 95 | 1012.6 | |
| 20260507201022 | 57 | 0.0 | 2.6 | 0.00 | 0.00 | 0.00 | 96 | 1012.5 | |
| 20260507200022 | 58 | 0.0 | 1.7 | 0.00 | 0.00 | 0.00 | 96 | 1012.4 | |
| 20260507195022 | 58 | 68 | 0.9 | 2.6 | 0.00 | 0.00 | 0.00 | 96 | 1012.4 |
| 20260507194021 | 58 | 0.0 | 1.7 | 0.00 | 0.00 | 0.00 | 97 | 1012.4 | |
| 20260507193022 | 58 | 0.0 | 0.9 | 0.00 | 0.00 | 0.00 | 97 | 1012.5 | |
| 20260507192022 | 58 | 0.0 | 1.7 | 0.00 | 0.00 | 0.00 | 97 | 1012.7 | |
| 20260507191021 | 58 | 0.0 | 1.7 | 0.00 | 0.00 | 0.00 | 97 | 1012.7 | |
| 20260507190021 | 58 | 0.0 | 2.6 | 0.00 | 0.00 | 0.00 | 98 | 1012.6 | |
| 20260507185107 | 57 | 0.0 | 2.6 | 0.00 | 0.00 | 0.00 | 98 | 1012.1 | |
| 20260507184522 | 57 | 0.0 | 1.7 | 0.00 | 0.00 | 0.00 | 98 | 1012.1 | |
| 20260507183521 | 57 | 0.0 | 0.9 | 0.00 | 0.00 | 0.00 | 98 | 1012.5 | |
| 20260507182522 | 57 | 0.0 | 1.7 | 0.00 | 0.00 | 0.00 | 98 | 1012.6 | |
| 20260507181541 | 57 | 0.0 | 1.7 | 0.00 | 0.00 | 0.00 | 98 | 1012.3 | |
| 20260507180522 | 57 | 0.0 | 1.7 | 0.00 | 0.00 | 0.00 | 98 | 1012.2 | |
| 20260507175522 | 57 | 0.0 | 1.7 | 0.00 | 0.00 | 0.00 | 98 | 1012.3 | |
| 20260507174521 | 57 | 0.0 | 1.7 | 0.00 | 0.00 | 0.00 | 97 | 1012.1 | |
| 20260507173521 | 58 | 0.0 | 2.6 | 0.00 | 0.00 | 0.00 | 97 | 1012.6 | |
| 20260507172521 | 58 | 0.0 | 2.6 | 0.00 | 0.00 | 0.00 | 97 | 1012.6 | |
| 20260507171521 | 59 | 0.0 | 1.7 | 0.00 | 0.00 | 0.00 | 97 | 1012.2 | |
| 20260507170521 | 59 | 45 | 0.9 | 2.6 | 0.00 | 0.00 | 0.00 | 97 | 1011.8 |
| 20260507165521 | 60 | 0.0 | 1.7 | 0.00 | 0.00 | 0.00 | 96 | 1011.8 | |
| 20260507164521 | 62 | 45 | 0.9 | 5.2 | 0.00 | 0.00 | 0.00 | 95 | 1012.0 |
| 20260507163521 | 65 | 45 | 0.9 | 2.6 | 0.00 | 0.00 | 0.00 | 96 | 1011.8 |
| 20260507162521 | 67 | 0.0 | 0.9 | 0.00 | 0.00 | 0.00 | 99 | 1011.9 | |
| 20260507161541 | 67 | 0.0 | 0.0 | 0.00 | 0.00 | 0.00 | 99 | 1012.2 | |
| 20260507160522 | 67 | 0.0 | 0.9 | 0.00 | 0.00 | 0.00 | 99 | 1012.6 | |
| 20260507155601 | 67 | 0.0 | 0.0 | 0.00 | 0.00 | 0.00 | 99 | 1012.5 | |
| 20260507154521 | 67 | 0.0 | 0.9 | 0.00 | 0.00 | 0.00 | 99 | 1012.6 | |
| 20260507153521 | 67 | 0.0 | 0.0 | 0.00 | 0.00 | 0.00 | 99 | 1012.3 | |
| 20260507152542 | 67 | 0.0 | 0.0 | 0.00 | 0.00 | 0.00 | 99 | 1012.2 | |
| 20260507151541 | 67 | 0.0 | 0.0 | 0.00 | 0.00 | 0.00 | 99 | 1012.3 | |
| 20260507150521 | 67 | 0.0 | 0.0 | 0.00 | 0.00 | 0.00 | 99 | 1012.5 | |
| 20260507145521 | 67 | 0.0 | 0.0 | 0.00 | 0.00 | 0.00 | 99 | 1012.4 | |
| 20260507144521 | 67 | 0.0 | 0.0 | 0.00 | 0.00 | 0.00 | 99 | 1012.2 | |
| 20260507143521 | 67 | 0.0 | 0.0 | 0.00 | 0.00 | 0.00 | 99 | 1012.2 | |
| 20260507141521 | 67 | 0.0 | 0.0 | 0.00 | 0.00 | 0.00 | 99 | 1012.2 | |
| 20260507140521 | 67 | 0.0 | 0.0 | 0.00 | 0.00 | 0.00 | 99 | 1012.4 | |
| 20260507135521 | 67 | 0.0 | 0.9 | 0.00 | 0.00 | 0.00 | 99 | 1012.4 | |
| 20260507134521 | 67 | 0.0 | 0.9 | 0.00 | 0.00 | 0.00 | 99 | 1012.5 | |
| 20260507133521 | 66 | 0.0 | 0.0 | 0.00 | 0.00 | 0.00 | 99 | 1012.9 | |
| 20260507132521 | 66 | 0.0 | 0.0 | 0.00 | 0.00 | 0.00 | 99 | 1013.0 | |
| 20260507131541 | 66 | 0.0 | 0.0 | 0.00 | 0.00 | 0.00 | 99 | 1013.0 | |
| 20260507130520 | 66 | 0.0 | 0.0 | 0.00 | 0.00 | 0.00 | 99 | 1012.8 | |
| 20260507125521 | 66 | 0.0 | 0.0 | 0.00 | 0.00 | 0.00 | 99 | 1012.7 | |
| 20260507124521 | 66 | 0.0 | 0.0 | 0.00 | 0.00 | 0.00 | 99 | 1012.9 | |
| 20260507123541 | 66 | 0.0 | 0.0 | 0.00 | 0.00 | 0.00 | 99 | 1013.0 | |
| 20260507122521 | 66 | 0.0 | 0.0 | 0.00 | 0.00 | 0.00 | 99 | 1012.8 | |
| 20260507121521 | 65 | 0.0 | 0.0 | 0.00 | 0.00 | 0.00 | 99 | 1012.7 | |
| 20260507120521 | 65 | 0.0 | 0.0 | 0.00 | 0.00 | 0.00 | 99 | 1012.8 | |
| 20260507115520 | 65 | 0.0 | 0.0 | 0.00 | 0.00 | 0.00 | 99 | 1012.8 | |
| 20260507114540 | 65 | 0.0 | 0.0 | 0.00 | 0.00 | 0.00 | 99 | 1012.7 | |
| 20260507114021 | 65 | 0.0 | 0.0 | 0.00 | 0.00 | 0.00 | 99 | 1012.8 | |
| 20260507113020 | 65 | 0.0 | 0.0 | 0.00 | 0.00 | 0.00 | 99 | 1013.3 | |
| 20260507112040 | 65 | 0.0 | 0.0 | 0.00 | 0.00 | 0.00 | 99 | 1013.1 | |
| 20260507111101 | 65 | 0.0 | 0.0 | 0.00 | 0.00 | 0.00 | 99 | 1013.2 | |
| 20260507110020 | 65 | 0.0 | 0.0 | 0.00 | 0.00 | 0.00 | 99 | 1013.3 | |
| 20260507105020 | 65 | 0.0 | 0.0 | 0.00 | 0.00 | 0.00 | 99 | 1012.9 | |
| 20260507104020 | 65 | 0.0 | 0.0 | 0.00 | 0.00 | 0.00 | 99 | 1012.7 | |
| 20260507103041 | 65 | 0.0 | 0.0 | 0.00 | 0.00 | 0.00 | 99 | 1012.9 | |
| 20260507102021 | 65 | 0.0 | 0.0 | 0.00 | 0.00 | 0.00 | 99 | 1013.0 | |
| 20260507101040 | 65 | 0.0 | 0.9 | 0.00 | 0.00 | 0.00 | 99 | 1012.8 | |
| 20260507100022 | 65 | 0.0 | 0.9 | 0.00 | 0.00 | 0.00 | 99 | 1012.8 | |
| 20260507095021 | 65 | 0.0 | 0.0 | 0.00 | 0.00 | 0.00 | 99 | 1012.9 | |
| 20260507094020 | 65 | 0.0 | 0.0 | 0.00 | 0.00 | 0.00 | 99 | 1012.8 | |
| 20260507093020 | 65 | 0.0 | 0.9 | 0.00 | 0.00 | 0.00 | 99 | 1012.9 | |
| 20260507092022 | 65 | 0.0 | 0.0 | 0.00 | 0.00 | 0.00 | 98 | 1012.7 | |
| 20260507091022 | 65 | 0.0 | 0.9 | 0.00 | 0.00 | 0.00 | 98 | 1012.7 | |
| 20260507090020 | 65 | 0.0 | 0.9 | 0.00 | 0.00 | 0.00 | 98 | 1012.8 | |
| 20260507085020 | 65 | 0.0 | 1.7 | 0.00 | 0.00 | 0.00 | 98 | 1012.9 | |
| 20260507084022 | 65 | 0.0 | 0.9 | 0.00 | 0.00 | 0.00 | 98 | 1012.8 | |
| 20260507083022 | 65 | 0.0 | 0.9 | 0.00 | 0.00 | 0.00 | 98 | 1012.8 | |
| 20260507082320 | 65 | 0.0 | 1.7 | 0.00 | 0.00 | 0.00 | 98 | 1013.3 | |
| 20260507081022 | 65 | 0.0 | 0.0 | 0.00 | 0.00 | 0.00 | 98 | 1013.3 | |
| 20260507080042 | 65 | 0.0 | 0.0 | 0.00 | 0.00 | 0.00 | 98 | 1013.2 | |
| 20260507075040 | 65 | 0.0 | 0.9 | 0.00 | 0.00 | 0.00 | 98 | 1012.8 | |
| 20260507074022 | 65 | 0.0 | 0.9 | 0.00 | 0.00 | 0.00 | 98 | 1013.2 | |
| 20260507073022 | 65 | 0.0 | 0.9 | 0.00 | 0.00 | 0.00 | 98 | 1013.5 | |
| 20260507072022 | 65 | 0.0 | 0.0 | 0.00 | 0.00 | 0.00 | 98 | 1013.5 | |
| 20260507071023 | 65 | 0.0 | 0.0 | 0.00 | 0.00 | 0.00 | 98 | 1013.8 | |
| 20260507070022 | 66 | 0.0 | 0.0 | 0.00 | 0.00 | 0.00 | 98 | 1013.7 | |
| 20260507065042 | 66 | 0.0 | 0.0 | 0.00 | 0.00 | 0.00 | 98 | 1013.9 | |
| 20260507064102 | 66 | 0.0 | 0.0 | 0.00 | 0.00 | 0.00 | 98 | 1014.5 | |
| 20260507063022 | 66 | 0.0 | 0.0 | 0.00 | 0.00 | 0.00 | 98 | 1014.8 | |
| 20260507062022 | 66 | 0.0 | 0.0 | 0.00 | 0.00 | 0.00 | 97 | 1014.8 | |
| 20260507061023 | 66 | 0.0 | 0.0 | 0.00 | 0.00 | 0.00 | 97 | 1014.4 | |
| 20260507060200 | 66 | 0.0 | 0.0 | 0.00 | 0.00 | 0.00 | 97 | 1014.4 | |
| 20260507055042 | 66 | 0.0 | 0.0 | 0.00 | 0.00 | 0.00 | 97 | 1014.6 | |
| 20260507054022 | 66 | 0.0 | 0.0 | 0.00 | 0.00 | 0.00 | 97 | 1014.6 | |
| 20260507053022 | 66 | 0.0 | 0.0 | 0.00 | 0.00 | 0.00 | 97 | 1014.7 | |
| 20260507052022 | 66 | 0.0 | 0.9 | 0.00 | 0.00 | 0.00 | 97 | 1014.3 | |
| 20260507051022 | 66 | 0.0 | 1.7 | 0.00 | 0.00 | 0.00 | 96 | 1015.6 | |
| 20260507050022 | 67 | 0.0 | 1.7 | 0.00 | 0.00 | 0.00 | 96 | 1014.9 | |
| 20260507045022 | 67 | 0.0 | 0.9 | 0.00 | 0.00 | 0.00 | 96 | 1014.6 |